Retour au catalogue

MESAT-1

ActifRadio amateurSSO
NORAD 60209·PAYLOAD·🇺🇸 United States
Ce nom de satellite n'a pas encore été confirmé par des sources officielles.

Lancé Jul 4, 2024 depuis Vandenberg Space Force Base

Loading…

Prochains Passages (prochaines 24 heures)

TLE

FraisSource: Space-Track

Époque: Sep 14, 2026, 14:24 UTC

1 60209U 24125G   26257.60035584  .00091177  00000-0  60109-3 0  9998
2 60209  97.2111 117.7888 0005893 221.9907 138.0907 15.75343986123583

Suivez MESAT-1 en temps réel avec AllMySat

Download on the App Store